FENGYUN 1C DEB, 32432

Orbit data source: Space-Track

FENGYUN 1C DEB, 32432 is space debris in SSO originally from a launch on Mon, 10 May 1999 UTC launched from the Taiyaun Space Center, China (TSC). Fengyun 1C debris stems from the Chinese weather satellite Fengyun-1C, which was intentionally destroyed by a Chinese anti-satellite missile in 2007. This event dramatically increased the amount of space debris, with thousands of trackable fragments posing hazards to satellites and human spaceflight. The Fengyun 1C debris cloud has become a focal point in discussions about space sustainability and the need for international regulations to prevent the creation of new debris.

Loading next visibility...
Identifier
32432, 1999-025DAU
Orbit
SSO
Country
Flag of CNCN / PRC
Related business
Manufacturer
Unknown
Mission
Spacecraft
Bus & Motor
Unknown
Mass
Unknown
Launch date (UTC)
1999-05-10 (27 years ago)
Launch vehicle
Unknown
Launch site
Taiyaun Space Center, China (TSC)
Object type
Payload
Rocket body
Debris
Shape & HBR
Unknown shape, 0.1 m
Radar Cross Section
Small (<0.1 m²)

Expand to show TLE details & history
Last TLE update: 1 day ago

TLE from 1 day ago
0 FENGYUN 1C DEB
1 32432U 99025DAU 26167.34748035  .00007625  00000-0  14590-2 0  9996
2 32432  98.1507 204.0028 0169723  92.3958 269.6682 14.55245734733929
Epoch: 2026-06-16T08:20Z
TLE epoch observation values (Epoch: 2026-06-16T08:20:22.302Z)
Latitude
-0.00003°
Longitude
174.28906°
Altitude
714.286 km
Speed
7.497 km/s
True Right ascension
13h 36m 00s
True Declination
0° 00' 00"
Sunlit
Object was in full shadow at epoch
Visualization orbit readout
Latitude
Unknown
Longitude
Unknown
Altitude
Unknown
Speed
Unknown
Apparent Right ascension
Unknown
Apparent Declination
Unknown
Sunlit
N/A
Visualization observer readout
Local Sidereal Time
23:25:07
Azimuth
Unknown
Elevation
Unknown
Doppler factor
Unknown
Orbital elements
Apogee altitude
825.879 km
Perigee altitude
585.423 km
Semi-major axis
7,083.788 km
Eccentricity
0.01697
Inclination
98.1507°
RAAN
204.0028°
Arg. of periapsis
92.3958°
True anomaly
267.72396°
Mean anomaly
269.6682°
Eccentric anomaly
268.69601°
Mean motion
3.64036 °/min
Orbital period
98.89 mins
BSTAR
0.001459
Loading maneuver chart data...
Computing Atmospheric mass density...
Loading historical data...
Loading historical data...
Loading historical data...
Loading historical data...
Loading historical data...
Loading historical data...
Loading historical data...

Documentation

Showing up to 5 results
|